TimeCDT,TemperatureF,Dew PointF,Humidity,Sea Level PressureIn,VisibilityMPH,Wind Direction,Wind SpeedMPH,Gust SpeedMPH,PrecipitationIn,Events,Conditions,WindDirDegrees,DateUTC
12:13 AM,60.8,59.0,94,29.91,0.8,SSE,10.4,18.4,N/A,,Overcast,160,2013-09-18 05:13:00
12:34 AM,62.6,59.0,88,29.91,0.5,SSE,12.7,18.4,N/A,Fog,Fog,160,2013-09-18 05:34:00
12:53 AM,62.6,60.8,94,29.90,0.8,SSE,11.5,-,N/A,,Overcast,160,2013-09-18 05:53:00
1:13 AM,62.6,60.8,94,29.89,0.8,SSE,10.4,19.6,N/A,,Overcast,160,2013-09-18 06:13:00
1:34 AM,62.6,60.8,94,29.89,0.8,SSE,12.7,17.3,N/A,,Overcast,160,2013-09-18 06:34:00
1:53 AM,62.6,60.8,94,29.88,0.8,SSE,13.8,-,N/A,,Overcast,160,2013-09-18 06:53:00
2:13 AM,64.4,60.8,88,29.88,0.8,SSE,12.7,-,N/A,,Overcast,160,2013-09-18 07:13:00
2:34 AM,64.4,62.6,94,29.87,1.2,SSE,10.4,-,N/A,,Overcast,160,2013-09-18 07:34:00
2:53 AM,64.4,62.6,94,29.86,1.5,South,11.5,-,N/A,,Overcast,170,2013-09-18 07:53:00
3:13 AM,64.4,62.6,94,29.85,2.0,South,11.5,18.4,N/A,,Overcast,170,2013-09-18 08:13:00
3:34 AM,66.2,62.6,88,29.84,2.5,South,10.4,17.3,N/A,,Overcast,170,2013-09-18 08:34:00
3:53 AM,66.2,62.6,88,29.83,2.5,South,11.5,-,N/A,,Overcast,180,2013-09-18 08:53:00
4:13 AM,66.2,62.6,88,29.83,2.5,South,11.5,16.1,N/A,,Overcast,170,2013-09-18 09:13:00
4:34 AM,66.2,62.6,88,29.83,2.5,South,11.5,-,N/A,,Overcast,180,2013-09-18 09:34:00
4:53 AM,66.2,62.6,88,29.83,2.5,South,11.5,16.1,N/A,,Overcast,180,2013-09-18 09:53:00
5:13 AM,66.2,62.6,88,29.83,2.5,South,10.4,16.1,N/A,,Overcast,170,2013-09-18 10:13:00
5:33 AM,66.2,62.6,88,29.83,2.5,SSE,11.5,16.1,N/A,,Overcast,160,2013-09-18 10:33:00
5:53 AM,66.2,62.6,88,29.83,2.5,SSE,12.7,-,N/A,,Overcast,160,2013-09-18 10:53:00
6:14 AM,66.2,62.6,88,29.83,2.5,South,11.5,19.6,N/A,,Overcast,170,2013-09-18 11:14:00
6:33 AM,66.2,62.6,88,29.83,2.5,South,11.5,16.1,N/A,,Overcast,170,2013-09-18 11:33:00
6:53 AM,68.0,62.6,83,29.82,3.0,South,11.5,-,N/A,,Overcast,170,2013-09-18 11:53:00
7:14 AM,68.0,62.6,83,29.82,2.5,South,9.2,-,N/A,,Overcast,170,2013-09-18 12:14:00
7:33 AM,68.0,62.6,83,29.82,2.0,South,11.5,-,N/A,,Overcast,170,2013-09-18 12:33:00
7:53 AM,68.0,62.6,83,29.82,2.0,South,11.5,-,N/A,,Overcast,180,2013-09-18 12:53:00
8:14 AM,68.0,62.6,83,29.82,2.0,South,10.4,-,N/A,,Overcast,170,2013-09-18 13:14:00
8:33 AM,68.0,62.6,83,29.82,2.5,South,12.7,-,N/A,,Overcast,170,2013-09-18 13:33:00
8:53 AM,68.0,62.6,83,29.82,2.5,South,11.5,17.3,N/A,,Overcast,170,2013-09-18 13:53:00
9:14 AM,68.0,62.6,83,29.82,3.0,South,10.4,-,N/A,,Haze,180,2013-09-18 14:14:00
9:33 AM,68.0,64.4,88,29.82,3.0,South,11.5,-,N/A,,Overcast,180,2013-09-18 14:33:00
9:54 AM,69.8,64.4,83,29.82,4.0,South,10.4,17.3,N/A,,Haze,180,2013-09-18 14:54:00
10:13 AM,69.8,64.4,83,29.82,4.0,South,10.4,-,N/A,,Haze,180,2013-09-18 15:13:00
10:33 AM,69.8,64.4,83,29.81,4.0,South,8.1,-,N/A,,Haze,180,2013-09-18 15:33:00
10:54 AM,69.8,64.4,83,29.81,5.0,South,10.4,-,N/A,,Haze,180,2013-09-18 15:54:00
11:13 AM,71.6,64.4,78,29.80,5.0,South,10.4,-,N/A,,Haze,170,2013-09-18 16:13:00
11:33 AM,71.6,64.4,78,29.80,7.0,South,9.2,-,N/A,,Overcast,180,2013-09-18 16:33:00
11:54 AM,73.4,64.4,73,29.79,7.0,South,10.4,-,N/A,,Overcast,170,2013-09-18 16:54:00
12:13 PM,73.4,64.4,73,29.78,7.0,South,11.5,-,N/A,,Overcast,170,2013-09-18 17:13:00
12:33 PM,77.0,66.2,69,29.77,10.0,SSE,11.5,-,N/A,,Overcast,160,2013-09-18 17:33:00
12:54 PM,78.8,66.2,65,29.76,10.0,South,13.8,18.4,N/A,,Mostly Cloudy,170,2013-09-18 17:54:00
1:13 PM,80.6,66.2,61,29.76,10.0,South,16.1,-,N/A,,Scattered Clouds,180,2013-09-18 18:13:00
1:33 PM,82.4,66.2,58,29.76,10.0,South,13.8,17.3,N/A,,Clear,190,2013-09-18 18:33:00
1:54 PM,84.2,66.2,55,29.75,10.0,South,12.7,18.4,N/A,,Clear,170,2013-09-18 18:54:00
2:13 PM,86.0,66.2,51,29.74,10.0,SSE,12.7,-,N/A,,Clear,150,2013-09-18 19:13:00
2:33 PM,86.0,64.4,48,29.74,10.0,South,13.8,18.4,N/A,,Clear,190,2013-09-18 19:33:00
2:54 PM,87.8,64.4,46,29.73,10.0,SSE,15.0,21.9,N/A,,Clear,160,2013-09-18 19:54:00
3:13 PM,87.8,64.4,46,29.72,10.0,SSE,16.1,23.0,N/A,,Clear,160,2013-09-18 20:13:00
3:33 PM,89.6,64.4,43,29.71,10.0,SSE,12.7,-,N/A,,Clear,160,2013-09-18 20:33:00
3:53 PM,89.6,64.4,43,29.71,10.0,South,16.1,24.2,N/A,,Clear,180,2013-09-18 20:53:00
4:13 PM,89.6,62.6,40,29.71,10.0,SSW,17.3,23.0,N/A,,Clear,200,2013-09-18 21:13:00
4:34 PM,89.6,62.6,40,29.71,10.0,South,15.0,20.7,N/A,,Clear,170,2013-09-18 21:34:00
4:53 PM,89.6,62.6,40,29.71,10.0,South,16.1,21.9,N/A,,Clear,190,2013-09-18 21:53:00
5:13 PM,89.6,62.6,40,29.71,10.0,SSW,13.8,21.9,N/A,,Clear,200,2013-09-18 22:13:00
5:34 PM,87.8,62.6,43,29.71,10.0,South,18.4,24.2,N/A,,Scattered Clouds,180,2013-09-18 22:34:00
5:53 PM,87.8,62.6,43,29.71,10.0,South,16.1,23.0,N/A,,Scattered Clouds,190,2013-09-18 22:53:00
6:13 PM,86.0,64.4,48,29.71,10.0,South,13.8,21.9,N/A,,Scattered Clouds,190,2013-09-18 23:13:00
6:33 PM,84.2,64.4,51,29.72,10.0,SSW,12.7,23.0,N/A,,Scattered Clouds,200,2013-09-18 23:33:00
6:53 PM,82.4,64.4,54,29.71,10.0,SSW,11.5,18.4,N/A,,Scattered Clouds,200,2013-09-18 23:53:00
7:14 PM,80.6,64.4,58,29.71,10.0,South,8.1,-,N/A,,Clear,180,2013-09-19 00:14:00
7:33 PM,80.6,64.4,58,29.71,10.0,South,8.1,-,N/A,,Clear,180,2013-09-19 00:33:00
7:53 PM,78.8,64.4,61,29.71,10.0,South,6.9,-,N/A,,Clear,180,2013-09-19 00:53:00
8:14 PM,78.8,64.4,61,29.71,10.0,South,6.9,-,N/A,,Clear,170,2013-09-19 01:14:00
8:33 PM,78.8,64.4,61,29.71,10.0,SSE,9.2,-,N/A,,Clear,160,2013-09-19 01:33:00
8:53 PM,77.0,64.4,65,29.72,10.0,South,9.2,-,N/A,,Clear,170,2013-09-19 01:53:00
9:14 PM,77.0,64.4,65,29.72,10.0,SSE,8.1,-,N/A,,Clear,160,2013-09-19 02:14:00
9:33 PM,77.0,64.4,65,29.73,10.0,South,8.1,-,N/A,,Clear,170,2013-09-19 02:33:00
9:53 PM,77.0,64.4,65,29.72,10.0,South,8.1,-,N/A,,Clear,170,2013-09-19 02:53:00
10:14 PM,75.2,64.4,69,29.72,10.0,SSE,9.2,-,N/A,,Clear,160,2013-09-19 03:14:00
10:33 PM,75.2,64.4,69,29.71,10.0,SSE,9.2,-,N/A,,Clear,160,2013-09-19 03:33:00
10:53 PM,73.4,64.4,73,29.71,10.0,South,9.2,-,N/A,,Clear,170,2013-09-19 03:53:00
11:14 PM,73.4,64.4,73,29.71,10.0,South,10.4,-,N/A,,Clear,170,2013-09-19 04:14:00
11:33 PM,73.4,64.4,73,29.71,10.0,SSE,10.4,-,N/A,,Clear,160,2013-09-19 04:33:00
11:53 PM,73.4,64.4,73,29.71,10.0,SSE,10.4,-,N/A,,Clear,160,2013-09-19 04:53:00